Previsão horária em Abbenrode

Hoje, 10 Abril, Sábado

Tempo Temperatura Precipitação Vento Pressão Humidade
00:00 +6°C° 0 mm 1 m/s 738 mmHg 82%
01:00 +6°C° 0 mm 1 m/s 738 mmHg 83%
02:00 +6°C° 0.4 mm 1 m/s 737 mmHg 87%
03:00 +6°C° 0.4 mm 1 m/s 737 mmHg 90%
04:00 +5°C° 0.4 mm 1 m/s 737 mmHg 94%
05:00 +5°C° 0.6 mm 1 m/s 738 mmHg 95%
06:00 +5°C° 0.6 mm 1 m/s 738 mmHg 96%
07:00 +5°C° 0 mm 1 m/s 738 mmHg 96%
08:00 +5°C° 0.1 mm 1 m/s 739 mmHg 96%
09:00 +5°C° 0.1 mm 1 m/s 739 mmHg 95%
10:00 +5°C° 0.1 mm 1 m/s 739 mmHg 94%
11:00 +5°C° 0.1 mm 1 m/s 740 mmHg 94%
12:00 +5°C° 0.1 mm 2 m/s 740 mmHg 94%
13:00 +5°C° 0.1 mm 2 m/s 740 mmHg 93%
14:00 +5°C° 0 mm 2 m/s 740 mmHg 93%
15:00 +5°C° 0 mm 2 m/s 740 mmHg 94%
16:00 +4°C° 0 mm 3 m/s 739 mmHg 94%
17:00 +4°C° 0.5 mm 3 m/s 739 mmHg 95%
18:00 +4°C° 0.5 mm 3 m/s 739 mmHg 96%
19:00 +4°C° 0.5 mm 3 m/s 738 mmHg 97%
20:00 +4°C° 1 mm 3 m/s 738 mmHg 96%
21:00 +4°C° 1 mm 3 m/s 738 mmHg 96%
22:00 +4°C° 1 mm 4 m/s 737 mmHg 96%
23:00 +5°C° 0.2 mm 3 m/s 737 mmHg 95%

Amanhã, 11 Abril, Domingo

Tempo Temperatura Precipitação Vento Pressão Humidade
00:00 +5°C° 0.2 mm 3 m/s 736 mmHg 94%
01:00 +5°C° 0.2 mm 3 m/s 736 mmHg 93%
02:00 +7°C° 0 mm 3 m/s 735 mmHg 92%
03:00 +7°C° 0 mm 2 m/s 735 mmHg 91%
04:00 +7°C° 0 mm 2 m/s 735 mmHg 90%
05:00 +8°C° 0.1 mm 2 m/s 735 mmHg 90%
06:00 +8°C° 0.1 mm 2 m/s 735 mmHg 90%
07:00 +8°C° 0.1 mm 3 m/s 735 mmHg 90%
08:00 +9°C° 0 mm 3 m/s 735 mmHg 88%
09:00 +10°C° 0 mm 3 m/s 735 mmHg 86%
10:00 +10°C° 0 mm 3 m/s 736 mmHg 85%
11:00 +12°C° 0 mm 3 m/s 735 mmHg 77%
12:00 +13°C° 0 mm 3 m/s 735 mmHg 70%
13:00 +16°C° 0 mm 3 m/s 735 mmHg 62%
14:00 +14°C° 0.2 mm 3 m/s 735 mmHg 68%
15:00 +13°C° 0.2 mm 3 m/s 735 mmHg 74%
16:00 +12°C° 0.2 mm 4 m/s 735 mmHg 80%
17:00 +10°C° 1.7 mm 3 m/s 736 mmHg 85%
18:00 +8°C° 1.7 mm 3 m/s 736 mmHg 91%
19:00 +5°C° 1.7 mm 3 m/s 737 mmHg 96%
20:00 +4°C° 0.2 mm 3 m/s 737 mmHg 96%
21:00 +3°C° 0.2 mm 4 m/s 738 mmHg 96%
22:00 +1°C° 0.2 mm 4 m/s 739 mmHg 96%
23:00 +1°C° 0.1 mm 4 m/s 739 mmHg 97%

Depois de amanhã, 12 Abril, Segunda-feira

Tempo Temperatura Precipitação Vento Pressão Humidade
00:00 0°C° 0.1 mm 4 m/s 740 mmHg 97%
01:00 0°C° 0.1 mm 4 m/s 740 mmHg 97%
02:00 0°C° 0 mm 4 m/s 741 mmHg 96%
03:00 0°C° 0 mm 4 m/s 741 mmHg 95%
04:00 -1°C° 0 mm 4 m/s 741 mmHg 94%
05:00 -1°C° 0.1 mm 4 m/s 742 mmHg 93%
06:00 -1°C° 0.1 mm 5 m/s 743 mmHg 92%
07:00 -1°C° 0.1 mm 5 m/s 743 mmHg 91%
08:00 0°C° 0 mm 5 m/s 744 mmHg 85%
09:00 +1°C° 0 mm 5 m/s 744 mmHg 78%
10:00 +2°C° 0 mm 5 m/s 745 mmHg 71%
11:00 +2°C° 0 mm 5 m/s 745 mmHg 65%
12:00 +3°C° 0 mm 5 m/s 745 mmHg 59%
13:00 +5°C° 0 mm 5 m/s 745 mmHg 53%
14:00 +5°C° 0 mm 5 m/s 745 mmHg 52%
15:00 +5°C° 0 mm 5 m/s 745 mmHg 51%
16:00 +5°C° 0 mm 5 m/s 745 mmHg 51%
17:00 +4°C° 0 mm 4 m/s 746 mmHg 55%
18:00 +4°C° 0 mm 3 m/s 746 mmHg 59%
19:00 +3°C° 0 mm 3 m/s 746 mmHg 63%
20:00 +2°C° 0 mm 3 m/s 747 mmHg 66%
21:00 +2°C° 0 mm 2 m/s 747 mmHg 70%
22:00 +1°C° 0 mm 2 m/s 748 mmHg 74%
23:00 -1°C° 0 mm 2 m/s 748 mmHg 77%

13 Abril, Terça-feira

Tempo Temperatura Precipitação Vento Pressão Humidade
00:00 -1°C° 0 mm 2 m/s 748 mmHg 79%
01:00 -2°C° 0 mm 2 m/s 748 mmHg 82%
02:00 -2°C° 0 mm 2 m/s 748 mmHg 82%
03:00 -2°C° 0 mm 2 m/s 748 mmHg 82%
04:00 -3°C° 0 mm 2 m/s 748 mmHg 83%
05:00 -2°C° 0 mm 3 m/s 748 mmHg 80%
06:00 -1°C° 0 mm 3 m/s 748 mmHg 77%
07:00 -1°C° 0 mm 4 m/s 749 mmHg 74%
08:00 0°C° 0 mm 4 m/s 749 mmHg 67%
09:00 +2°C° 0 mm 5 m/s 749 mmHg 60%
10:00 +3°C° 0 mm 6 m/s 749 mmHg 54%
11:00 +4°C° 0 mm 6 m/s 749 mmHg 52%
12:00 +4°C° 0 mm 6 m/s 749 mmHg 51%
13:00 +5°C° 0 mm 6 m/s 748 mmHg 49%
14:00 +5°C° 0.2 mm 6 m/s 748 mmHg 51%
15:00 +6°C° 0.2 mm 5 m/s 748 mmHg 53%
16:00 +6°C° 0.2 mm 5 m/s 748 mmHg 55%
17:00 +4°C° 0.2 mm 4 m/s 748 mmHg 62%
18:00 +3°C° 0.2 mm 4 m/s 748 mmHg 70%
19:00 +2°C° 0.2 mm 3 m/s 748 mmHg 77%
20:00 +1°C° 0 mm 3 m/s 749 mmHg 81%
21:00 +1°C° 0 mm 2 m/s 749 mmHg 84%
22:00 -1°C° 0 mm 2 m/s 749 mmHg 87%
23:00 -1°C° 0 mm 2 m/s 749 mmHg 90%

14 Abril, Quarta-feira

Tempo Temperatura Precipitação Vento Pressão Humidade
00:00 -2°C° 0 mm 2 m/s 749 mmHg 92%
01:00 -2°C° 0 mm 2 m/s 749 mmHg 95%
02:00 -2°C° 0 mm 2 m/s 749 mmHg 95%
03:00 -2°C° 0 mm 2 m/s 749 mmHg 95%
04:00 -3°C° 0 mm 2 m/s 749 mmHg 95%
05:00 -2°C° 0 mm 2 m/s 749 mmHg 92%
06:00 -1°C° 0 mm 3 m/s 750 mmHg 89%
07:00 -1°C° 0 mm 3 m/s 750 mmHg 87%
08:00 +1°C° 0.1 mm 3 m/s 750 mmHg 80%
09:00 +1°C° 0.1 mm 4 m/s 750 mmHg 74%
10:00 +3°C° 0.1 mm 4 m/s 750 mmHg 67%
11:00 +4°C° 0.2 mm 4 m/s 749 mmHg 63%
12:00 +5°C° 0.2 mm 4 m/s 749 mmHg 59%
13:00 +6°C° 0.2 mm 5 m/s 749 mmHg 55%
14:00 +6°C° 0.3 mm 4 m/s 749 mmHg 56%
15:00 +6°C° 0.3 mm 4 m/s 748 mmHg 56%
16:00 +6°C° 0.3 mm 4 m/s 748 mmHg 56%
17:00 +4°C° 0.1 mm 3 m/s 748 mmHg 62%
18:00 +3°C° 0.1 mm 3 m/s 748 mmHg 68%
19:00 +3°C° 0.1 mm 2 m/s 748 mmHg 74%
20:00 +2°C° 0 mm 2 m/s 749 mmHg 77%
21:00 +1°C° 0 mm 2 m/s 749 mmHg 79%
22:00 +1°C° 0 mm 2 m/s 749 mmHg 81%
23:00 -1°C° 0 mm 2 m/s 749 mmHg 84%

15 Abril, Quinta-feira

Tempo Temperatura Precipitação Vento Pressão Humidade
00:00 +1°C° 0 mm 1 m/s 749 mmHg 87%
01:00 0°C° 0 mm 1 m/s 750 mmHg 90%
02:00 0°C° 0 mm 1 m/s 750 mmHg 91%
03:00 0°C° 0 mm 1 m/s 750 mmHg 93%
04:00 -1°C° 0 mm 1 m/s 750 mmHg 94%
05:00 0°C° 0 mm 1 m/s 750 mmHg 92%
06:00 +1°C° 0 mm 1 m/s 750 mmHg 90%
07:00 -1°C° 0 mm 2 m/s 751 mmHg 87%
08:00 +2°C° 0 mm 2 m/s 751 mmHg 78%
09:00 +2°C° 0 mm 3 m/s 751 mmHg 68%
10:00 +4°C° 0 mm 3 m/s 751 mmHg 59%
11:00 +4°C° 0 mm 3 m/s 751 mmHg 56%
12:00 +5°C° 0 mm 4 m/s 751 mmHg 53%
13:00 +6°C° 0 mm 4 m/s 751 mmHg 49%
14:00 +6°C° 0 mm 4 m/s 750 mmHg 50%
15:00 +6°C° 0 mm 4 m/s 750 mmHg 51%
16:00 +6°C° 0 mm 4 m/s 750 mmHg 51%
17:00 +5°C° 0.1 mm 4 m/s 750 mmHg 58%
18:00 +4°C° 0.1 mm 3 m/s 750 mmHg 64%
19:00 +3°C° 0.1 mm 3 m/s 750 mmHg 71%
20:00 +2°C° 0 mm 3 m/s 750 mmHg 75%
21:00 +2°C° 0 mm 2 m/s 751 mmHg 79%
22:00 +2°C° 0 mm 2 m/s 751 mmHg 84%
23:00 +1°C° 0 mm 2 m/s 751 mmHg 85%
Mostrar mais